OBJECT X, 57187

Orbit data source: Space-Track

You're viewing an uncataloged RSO

Recently launched and/or uncataloged RSOs may have evolving metadata. Metadata may include the following, but is not limited to: Owner, Manufacturer, Bus, Motor, and Mission.

OBJECT X, 57187 is a satellite in SSO that was launched on Tue, 27 Jun 2023 UTC via a SOYUZ-2-1B launch vehicle from the Vostochny Cosmodrome (VOSTO). Unknown objects in Earth's orbit typically refer to objects detected orbiting the Earth but have not yet been identified or cataloged. These objects could be anything from previously untracked satellites, spent rocket stages, debris from satellite collisions, or even natural meteoroids temporarily captured by Earth's gravity.

Loading next visibility...
Identifier
57187, 2023-091X
Orbit
SSO
Country
Flag of TBDTBD
Related business
Manufacturer
Sputniks
Mission
Operational Commercial Imaging
Bus & Motor
CUBESAT 3U, Unknown motor
Mass
3.4 kg wet, 3.4 kg dry
Launch date (UTC)
2023-06-27 (3 years ago)
Launch vehicle
SOYUZ-2-1B
Launch site
Vostochny Cosmodrome (VOSTO)
Object type
Unknown
Shape & HBR
Box, 0.2 m
Radar Cross Section
0.035 m², Medium (>0.1 m² and < 1m²)

Expand to show TLE details & history
Last TLE update: 9 hours ago

TLE from 9 hours ago
0 OBJECT X
1 57187U 23091X   26256.90135635  .00007403  00000-0  27416-3 0  9993
2 57187  97.5000 321.2502 0010233 133.9723 226.2362 15.27907805177858
Epoch: 2026-09-13T21:37Z
TLE epoch observation values (Epoch: 2026-09-13T21:37:57.188Z)
Latitude
-0.00001°
Longitude
3.87256°
Altitude
490.027 km
Speed
7.617 km/s
True Right ascension
21h 25m 00s
True Declination
0° 00' 00"
Sunlit
Object was in full shadow at epoch
Visualization orbit readout
Latitude
Unknown
Longitude
Unknown
Altitude
Unknown
Speed
Unknown
Apparent Right ascension
Unknown
Apparent Declination
Unknown
Sunlit
N/A
Visualization observer readout
Local Sidereal Time
23:28:51
Azimuth
Unknown
Elevation
Unknown
Doppler factor
Unknown
Orbital elements
Apogee altitude
486.044 km
Perigee altitude
472.01 km
Semi-major axis
6,857.164 km
Eccentricity
0.00102
Inclination
97.5°
RAAN
321.2502°
Arg. of periapsis
133.9723°
True anomaly
226.15159°
Mean anomaly
226.2362°
Eccentric anomaly
226.19389°
Mean motion
3.82231 °/min
Orbital period
94.18 mins
BSTAR
0.00027416
Loading maneuver chart data...
Computing Atmospheric mass density...
Loading historical data...
Loading historical data...
Loading historical data...
Loading historical data...
Loading historical data...
Loading historical data...
Loading historical data...

Documentation

Showing up to 5 results
|